Weather History for Columbia Owens, SC

Change the Weather History Date:

Monday, August 5, 2013

  Actual Average Record
Temperature  
Mean Temperature 82 °F 82 °F  
Max Temperature 89 °F 92 °F 101 °F (2008)
Min Temperature 74 °F 72 °F 69 °F (1999)
Degree Days  
Heating Degree Days 0 0  
Month to date heating degree days 0 0  
Since 1 June heating degree days 0 0  
Since 1 July heating degree days 0 0  
Cooling Degree Days 17 17  
Month to date cooling degree days 89 86  
Year to date cooling degree days 1356 1402  
Since 1 June cooling degree days 1046 1066  
Growing Degree Days 30 (Base 50)    
Moisture  
Dew Point 68 °F    
Average Humidity 66    
Maximum Humidity 93    
Minimum Humidity 43    
Precipitation  
Precipitation 0.00 in 0.18 in 1.09 in (2011)
Month to date precipitation T 0.93  
Year to date precipitation 34.90 27.84  
Sea Level Pressure  
Sea Level Pressure 30.03 in    
Wind  
Wind Speed 3 mph (SSE)    
Max Wind Speed 13 mph    
Max Gust Speed 20 mph    
Visibility 10 miles    
Events      
T = Trace of Precipitation, MM = Missing Value Source: NWS Daily Summary

Daily Weather History Graph

Daily Weather History Graph

Search for Another Location

Airport:

Trip Planner

Search our weather history database for the weather conditions in past years. The results will help you decide how hot, cold, wet, or windy it might be!

Date:

Astronomy

Aug. 05, 2013 Rise Set
Actual Time 6:38 AM EDT 8:20 PM EDT
Civil Twilight 6:11 AM EDT 8:47 PM EDT
Nautical Twilight 5:38 AM EDT 9:20 PM EDT
Astronomical Twilight 5:04 AM EDT 9:54 PM EDT
Moon 5:31 AM EDT (8/5) 7:22 PM EDT (8/5)
Length of Visible Light 14h 36m
Length of Day
13h 42m
Waning Crescent, 1% of the Moon is Illuminated
Aug 5
Waning Crescent
Aug 6
New
Aug 14
First Quarter
Aug 20
Full
Aug 28
Last Quarter

Hourly Weather History & Observations

Time (EDT) Temp. Heat Index Dew Point Humidity Pressure Visibility Wind Dir Wind Speed Gust Speed Precip Events Conditions
12:53 AM 79.0 °F - 69.1 °F 72% 30.03 in 10.0 mi Calm Calm - N/A   Overcast
1:53 AM 79.0 °F - 70.0 °F 74% 30.01 in 10.0 mi SE 3.5 mph - N/A   Overcast
2:53 AM 77.0 °F - 70.0 °F 79% 30.00 in 10.0 mi Calm Calm - N/A   Partly Cloudy
3:53 AM 75.0 °F - 71.1 °F 87% 30.00 in 10.0 mi Calm Calm - N/A   Scattered Clouds
4:53 AM 75.0 °F - 71.1 °F 87% 30.00 in 9.0 mi Calm Calm - N/A   Scattered Clouds
5:53 AM 75.0 °F - 71.1 °F 87% 30.00 in 8.0 mi Calm Calm - N/A   Partly Cloudy
6:53 AM 73.9 °F - 71.1 °F 91% 30.03 in 7.0 mi East 3.5 mph - N/A   Partly Cloudy
7:53 AM 75.9 °F - 70.0 °F 82% 30.05 in 8.0 mi Calm Calm - N/A   Overcast
8:53 AM 78.1 °F - 69.1 °F 74% 30.06 in 10.0 mi Calm Calm - N/A   Overcast
9:53 AM 80.1 °F 82.9 °F 69.1 °F 69% 30.06 in 10.0 mi Variable 3.5 mph - N/A   Mostly Cloudy
10:53 AM 82.9 °F 85.0 °F 66.0 °F 56% 30.07 in 10.0 mi Variable 3.5 mph - N/A   Partly Cloudy
11:53 AM 84.0 °F 85.8 °F 64.9 °F 53% 30.07 in 10.0 mi Variable 4.6 mph - N/A   Overcast
12:53 PM 84.9 °F 87.6 °F 66.9 °F 55% 30.07 in 10.0 mi Variable 4.6 mph - N/A   Scattered Clouds
1:53 PM 87.1 °F 88.9 °F 64.9 °F 48% 30.04 in 10.0 mi SE 8.1 mph - N/A   Clear
2:53 PM 87.1 °F 88.9 °F 64.9 °F 48% 30.03 in 10.0 mi SSE 8.1 mph - N/A   Clear
3:53 PM 88.0 °F 88.7 °F 63.0 °F 43% 30.02 in 10.0 mi South 11.5 mph - N/A   Partly Cloudy
4:53 PM 88.0 °F 90.3 °F 66.0 °F 48% 30.00 in 10.0 mi Variable 5.8 mph - N/A   Clear
5:53 PM 87.1 °F 89.9 °F 66.9 °F 51% 29.99 in 10.0 mi Variable 5.8 mph - N/A   Clear
6:53 PM 84.9 °F 87.6 °F 66.9 °F 55% 29.99 in 10.0 mi Variable 5.8 mph - N/A   Partly Cloudy
7:53 PM 82.9 °F 86.5 °F 69.1 °F 63% 30.01 in 10.0 mi Calm Calm - N/A   Scattered Clouds
8:53 PM 81.0 °F 83.8 °F 68.0 °F 65% 30.02 in 10.0 mi Variable 3.5 mph - N/A   Mostly Cloudy
9:53 PM 78.1 °F - 68.0 °F 71% 30.04 in 10.0 mi Calm Calm - N/A   Partly Cloudy
10:53 PM 78.1 °F - 64.9 °F 64% 30.04 in 10.0 mi Variable 4.6 mph - N/A   Scattered Clouds
11:53 PM 75.9 °F - 64.0 °F 67% 30.04 in 10.0 mi South 4.6 mph - N/A   Partly Cloudy